Temp
59 59 59 59 58 59 58 58 57 57 58 58 58 58 58 58 58 65 62 68 67 64 64 75 75 76 78 76 76 77 64 62 67 64 68 76 73 81 83 79 81 83 83 84 85
58 58 59 58 58 58 58 57 57 57 57 57 57 57 58 57 59 61 69 64 63 63 72 72 71 74 71 72 72 68 64 65 74 72 69 75 74 77 74 75 76 80 85 82 83
58 58 58 58 58 58 57 57 57 57 57 57 57 57 57 59 57 67 65 64 63 66 74 76 75 72 68 71 69 68 63 72 70 71 73 71 72 77 74 70 75 75 80 83 84
57 57 57 58 58 57 57 56 56 57 57 57 57 57 58 61 56 71 66 65 66 74 73 72 71 66 65 63 70 60 67 68 72 72 71 69 74 72 74 74 79 81 83 83 83
57 57 57 57 57 57 56 56 56 56 56 56 57 57 59 56 61 72 65 68 74 72 71 70 67 67 62 65 67 61 66 70 70 70 70 72 69 70 72 78 82 82 81 80 82
57 56 56 56 56 56 56 56 55 55 56 56 57 57 57 50 72 72 70 71 74 72 71 71 68 70 65 64 61 65 65 67 68 68 69 65 68 71 73 79 78 79 79 81 83
56 56 56 56 56 55 55 55 55 55 56 57 57 58 55 58 71 73 71 71 73 74 70 73 72 67 66 61 67 64 58 64 66 68 66 70 64 66 75 78 76 78 79 82 84
56 55 55 55 54 54 54 54 54 55 56 58 58 58 54 69 74 69 73 71 73 73 72 74 74 68 64 67 61 57 59 53 65 65 67 66 57 71 77 75 75 77 79 81 84
55 55 54 54 54 54 54 54 55 57 57 58 58 56 55 67 65 72 72 67 69 70 70 72 68 64 62 55 53 55 49 53 58 67 65 63 60 69 74 73 72 76 79 81 83
54 54 54 54 54 53 53 54 56 57 60 62 58 47 60 61 67 69 73 70 67 65 62 62 63 56 55 51 43 50 51 54 52 59 60 59 61 68 72 73 72 75 77 79 81
54 54 54 54 54 53 57 64 61 57 57 56 56 55 59 68 70 67 70 67 67 64 56 60 53 49 51 55 57 54 48 48 54 60 56 56 60 66 70 71 71 73 75 77 80
53 53 53 53 53 53 61 53 49 50 45 55 54 54 59 61 52 62 69 60 59 53 58 53 48 58 58 56 52 52 49 48 54 58 57 58 59 66 68 70 72 73 74 77 80
53 53 53 52 52 56 55 51 56 54 45 52 57 56 58 58 53 56 62 62 57 54 53 50 55 56 55 52 49 51 49 50 50 54 58 57 57 63 68 69 71 74 76 78 79
52 52 52 51 52 55 53 56 57 54 48 51 54 58 59 59 52 62 63 62 56 51 54 52 57 52 51 50 52 46 54 51 50 49 48 58 46 59 64 66 68 71 74 77 79
52 52 52 50 54 56 54 58 56 50 37 53 55 67 62 55 59 58 64 60 52 52 52 49 50 48 47 50 54 49 53 51 51 49 49 51 48 58 62 60 65 71 74 77 80
52 52 52 54 56 55 56 55 53 45 35 47 55 52 55 57 58 59 58 61 61 54 54 53 59 54 54 54 55 55 51 53 53 50 39 50 49 56 59 60 65 69 72 74 77
51 51 52 55 50 55 54 54 45 39 50 43 44 49 50 50 53 55 53 51 50 44 45 50 52 56 55 49 54 52 47 40 39 36 39 52 49 54 63 62 63 64 68 71 73
51 48 49 54 54 54 54 49 36 40 40 46 44 48 46 49 51 51 51 49 54 52 47 44 41 49 54 51 48 48 47 40 32 37 44 52 44 56 60 63 64 66 67 70 72
48 54 54 52 54 54 50 38 39 38 40 39 45 42 45 46 47 49 50 50 52 54 45 44 44 53 54 54 54 47 42 52 41 44 38 48 55 59 62 61 63 62 62 61 66
52 53 50 52 54 53 47 36 38 42 42 42 35 40 37 40 42 44 46 50 47 52 57 50 41 52 52 55 54 51 54 37 40 31 34 47 49 49 51 54 58 57 55 54 56
51 48 51 53 53 50 36 36 38 43 43 38 37 36 39 38 40 41 43 47 50 49 54 53 48 46 50 47 48 46 44 43 38 41 37 38 38 44 45 48 48 52 50 48 49
47 37 51 52 41 43 38 38 38 40 44 41 41 39 38 39 38 39 40 46 50 50 42 51 45 41 47 56 57 55 49 47 38 36 38 35 42 49 48 47 47 47 46 47 47
44 44 52 48 31 36 38 37 39 38 39 39 38 41 43 38 33 40 42 51 48 43 37 39 39 36 41 46 52 48 49 41 38 36 35 33 40 47 47 47 47 45 44 44 44
42 32 45 47 46 36 31 33 35 41 37 39 38 40 37 37 41 37 40 46 48 48 42 38 40 41 38 33 47 42 47 49 44 36 40 40 42 45 46 45 45 46 43 42 41
41 35 40 31 36 38 37 35 32 29 38 41 32 32 30 29 36 36 41 44 48 46 42 36 35 42 42 39 43 45 46 47 44 45 38 46 48 53 55 52 49 50 44 41 39
34 40 44 40 38 36 34 35 33 35 36 35 31 38 39 32 33 30 36 39 39 43 39 36 34 42 38 40 45 43 47 48 48 48 48 49 48 58 58 55 49 47 43 40 38
40 42 44 35 37 37 36 35 34 37 39 41 39 37 37 37 40 43 44 43 41 36 33 33 33 38 33 43 43 38 45 47 47 51 49 43 50 57 53 49 48 45 45 40 37
MSLP
1020.37 1020.24 1019.99 1019.78 1019.57 1019.30 1019.02 1018.73 1018.42 1018.15 1017.80 1017.47 1017.23 1016.76 1016.30 1015.76 1015.15 1014.12 1012.60 1011.62 1011.45 1011.78 1011.42 1010.78 1010.69 1010.35 1009.82 1009.43 1009.38 1008.60 1007.13 1004.93 1004.30 1004.52 1004.22 1004.62 1004.43 1004.21 1004.61 1004.38 1004.31 1004.37 1004.27 1004.78 1005.32
1020.09 1019.89 1019.74 1019.53 1019.35 1019.13 1018.89 1018.50 1018.26 1017.92 1017.57 1017.20 1016.87 1016.54 1016.04 1015.38 1014.29 1012.54 1011.31 1011.62 1011.72 1011.80 1011.10 1009.95 1009.74 1009.83 1009.31 1008.73 1008.89 1008.18 1006.19 1004.99 1004.78 1005.04 1004.66 1004.38 1004.51 1004.28 1004.59 1004.36 1004.21 1004.05 1004.18 1005.05 1005.27
1019.99 1019.74 1019.58 1019.31 1019.15 1018.85 1018.60 1018.47 1017.98 1017.65 1017.39 1016.91 1016.56 1016.36 1015.84 1015.04 1013.29 1010.60 1011.39 1011.52 1011.62 1011.37 1010.57 1010.33 1009.69 1009.50 1008.55 1008.51 1008.15 1007.52 1005.98 1005.34 1005.67 1006.08 1005.54 1004.95 1004.62 1004.51 1004.18 1003.95 1003.94 1003.68 1003.82 1004.31 1004.40
1019.87 1019.62 1019.30 1019.14 1018.72 1018.46 1018.23 1018.04 1017.81 1017.25 1017.10 1016.67 1016.22 1016.27 1015.78 1014.72 1012.08 1010.44 1011.15 1011.28 1011.39 1010.83 1010.11 1009.68 1009.72 1009.23 1008.53 1007.78 1007.71 1007.61 1006.97 1006.63 1005.86 1005.99 1005.99 1005.21 1004.85 1004.15 1003.93 1003.88 1004.12 1003.64 1003.76 1003.88 1003.84
1019.68 1019.54 1019.14 1018.79 1018.58 1018.26 1017.85 1017.28 1017.22 1016.93 1016.42 1016.43 1015.90 1015.95 1015.53 1013.53 1011.02 1010.72 1011.16 1010.78 1010.97 1010.70 1009.62 1009.17 1008.90 1008.68 1008.24 1007.81 1007.63 1007.43 1007.04 1006.51 1006.41 1006.25 1005.84 1005.50 1004.67 1004.03 1003.37 1003.69 1003.44 1003.23 1003.28 1003.33 1003.11
1019.41 1019.35 1019.12 1018.62 1018.31 1017.98 1017.54 1017.00 1016.29 1016.31 1015.71 1015.91 1015.32 1015.78 1015.06 1012.29 1010.36 1010.74 1010.76 1010.55 1010.34 1010.01 1009.66 1009.37 1008.72 1008.66 1008.30 1008.10 1007.88 1006.98 1007.04 1006.58 1006.21 1005.85 1005.39 1005.09 1004.20 1004.00 1003.16 1002.90 1002.71 1002.60 1002.46 1002.39 1002.06
1019.15 1018.91 1018.81 1018.57 1017.99 1017.68 1016.99 1016.60 1015.80 1015.48 1014.97 1014.79 1014.34 1015.42 1013.94 1011.04 1010.34 1010.24 1010.52 1010.30 1010.19 1009.72 1009.29 1009.28 1009.12 1009.00 1008.77 1008.29 1008.04 1007.77 1007.05 1006.31 1005.55 1005.15 1004.72 1004.47 1003.28 1002.59 1002.41 1002.01 1001.80 1001.52 1001.56 1001.29 1001.03
1018.88 1018.54 1018.47 1018.26 1017.90 1017.27 1016.61 1015.84 1015.36 1014.64 1014.29 1014.19 1014.24 1014.62 1011.67 1010.19 1010.18 1010.19 1009.78 1009.60 1009.75 1009.68 1009.83 1009.28 1009.14 1009.28 1009.07 1008.56 1008.31 1007.89 1006.72 1005.73 1004.39 1004.72 1004.39 1004.20 1002.00 1001.43 1001.27 1001.10 1000.74 1000.67 1000.44 1000.23 1000.11
1018.76 1018.52 1018.06 1017.85 1017.51 1017.00 1016.20 1015.10 1014.53 1014.39 1014.66 1014.36 1014.47 1013.60 1011.05 1010.36 1009.97 1009.32 1009.40 1009.21 1009.15 1009.32 1009.73 1009.58 1009.35 1009.04 1009.16 1008.67 1008.10 1007.34 1005.89 1005.30 1004.77 1004.51 1004.16 1003.71 1001.73 1001.34 1001.03 1000.83 1000.36 999.97 999.65 999.54 999.50
1018.53 1018.24 1018.00 1017.54 1017.33 1016.70 1015.48 1014.51 1014.40 1014.53 1014.41 1014.28 1014.03 1013.61 1011.02 1009.91 1009.67 1009.34 1009.24 1009.33 1008.89 1008.93 1009.51 1009.36 1009.05 1008.71 1008.57 1008.40 1007.04 1006.07 1005.94 1005.34 1005.11 1004.79 1004.48 1003.45 1001.94 1001.26 1000.95 1000.49 1000.11 999.59 999.27 999.10 998.99
1018.30 1018.24 1017.72 1017.57 1016.98 1016.25 1014.67 1013.96 1014.05 1013.97 1013.69 1012.53 1012.11 1011.81 1011.04 1010.21 1010.03 1009.24 1009.26 1009.03 1008.66 1008.45 1008.11 1008.47 1008.45 1007.32 1007.43 1007.72 1007.39 1007.15 1006.89 1006.08 1005.48 1005.07 1004.47 1003.23 1002.00 1000.91 1000.39 1000.06 999.78 999.33 999.01 998.60 998.55
1018.24 1017.89 1017.88 1017.16 1016.44 1016.04 1015.02 1015.08 1016.35 1016.71 1014.34 1012.57 1011.97 1011.76 1011.20 1011.16 1010.31 1009.31 1009.46 1008.84 1008.28 1007.91 1007.95 1008.32 1007.49 1007.07 1007.36 1007.59 1007.69 1007.32 1006.44 1005.91 1005.21 1004.71 1004.23 1002.54 1000.80 1000.01 999.63 999.19 998.96 998.66 998.46 998.12 997.88
1018.27 1017.88 1017.38 1016.95 1016.24 1016.02 1015.93 1016.73 1016.97 1016.63 1014.74 1011.78 1010.99 1010.60 1010.32 1010.84 1009.87 1009.16 1009.24 1008.42 1008.09 1007.69 1007.82 1007.30 1006.65 1007.52 1007.41 1007.26 1007.22 1006.75 1006.23 1005.62 1005.22 1004.68 1003.76 1002.01 999.53 998.22 998.00 998.23 998.31 998.04 997.92 997.65 997.32
1018.31 1017.83 1017.25 1016.76 1016.41 1016.33 1016.09 1016.70 1016.59 1016.42 1013.65 1011.33 1010.18 1009.87 1010.24 1010.17 1009.41 1009.12 1008.94 1008.32 1008.16 1007.79 1007.69 1007.44 1007.12 1007.32 1007.24 1006.79 1006.82 1006.15 1006.23 1006.03 1005.41 1004.54 1002.44 1001.83 999.14 997.81 997.58 997.12 996.94 997.02 997.03 996.71 996.55
1018.35 1017.86 1017.47 1016.96 1016.35 1015.79 1016.41 1016.52 1016.27 1015.99 1012.48 1010.64 1009.70 1009.66 1009.60 1009.72 1008.68 1008.70 1008.84 1008.56 1007.66 1007.60 1007.97 1006.84 1006.97 1007.13 1006.89 1006.64 1006.79 1006.26 1006.46 1005.96 1005.34 1004.31 1002.92 1001.27 999.93 997.02 997.42 996.73 996.44 996.20 996.14 995.81 995.83
1018.52 1018.06 1017.47 1017.09 1016.64 1016.19 1016.33 1016.03 1015.64 1013.69 1011.26 1010.27 1009.63 1009.58 1009.00 1008.52 1008.16 1008.37 1008.31 1008.57 1007.71 1007.27 1007.23 1006.74 1006.83 1006.91 1006.53 1006.65 1006.53 1006.49 1006.34 1005.45 1004.65 1003.86 1002.21 1000.13 999.53 996.80 996.63 996.85 996.31 996.50 996.29 996.29 996.20
1018.40 1018.08 1017.74 1017.22 1016.72 1016.49 1015.99 1014.98 1013.74 1011.96 1011.30 1011.04 1010.70 1010.48 1009.82 1008.68 1008.10 1007.87 1007.69 1007.54 1006.87 1006.67 1006.09 1006.09 1005.92 1006.21 1006.72 1006.64 1006.59 1006.53 1006.07 1004.36 1003.24 1003.10 1000.85 1000.07 999.36 997.52 997.24 997.98 998.13 997.94 997.73 997.45 996.91
1018.05 1018.39 1018.16 1017.41 1017.21 1016.52 1015.51 1014.03 1012.88 1012.59 1012.31 1012.30 1011.99 1011.04 1009.83 1009.30 1008.31 1008.01 1007.36 1006.84 1006.89 1006.60 1005.93 1005.29 1005.15 1005.80 1006.08 1005.95 1005.62 1005.69 1005.68 1004.34 1002.83 1001.60 1000.24 999.84 998.75 997.52 998.80 998.99 999.10 999.03 998.93 998.41 997.54
1018.10 1017.95 1017.66 1017.48 1017.06 1016.15 1014.97 1013.76 1013.25 1014.01 1014.26 1013.49 1012.42 1011.18 1010.11 1010.13 1009.75 1008.51 1007.48 1006.94 1006.70 1006.59 1006.04 1005.34 1004.99 1005.71 1005.85 1005.77 1005.83 1005.69 1005.37 1004.89 1004.41 1003.32 1002.15 999.94 998.58 998.81 999.16 999.66 999.98 1000.25 1000.36 1000.21 999.23
1018.01 1017.59 1017.61 1017.60 1017.01 1015.76 1014.73 1014.62 1015.06 1015.54 1015.32 1014.62 1013.57 1012.78 1011.68 1011.24 1010.49 1009.53 1008.23 1007.98 1007.72 1007.41 1006.77 1005.95 1005.60 1005.47 1005.74 1005.80 1005.74 1005.45 1005.43 1005.69 1005.22 1003.65 1001.38 999.47 999.29 999.66 1000.74 1001.27 1001.32 1001.76 1002.15 1002.17 1001.47
1017.66 1017.25 1017.70 1017.51 1016.97 1015.59 1015.16 1015.82 1016.03 1016.28 1016.30 1015.67 1014.74 1014.07 1013.27 1012.62 1011.93 1010.98 1009.45 1009.11 1008.95 1008.32 1007.68 1006.77 1006.26 1005.60 1005.80 1005.07 1004.35 1005.44 1005.26 1005.85 1006.18 1004.68 1002.69 1001.54 1002.21 1003.21 1003.30 1003.43 1003.57 1003.77 1004.13 1003.95 1003.41
1017.78 1017.50 1017.80 1017.74 1016.56 1016.27 1016.14 1016.73 1017.24 1016.71 1016.63 1016.36 1015.89 1015.16 1014.44 1013.71 1012.81 1011.91 1010.60 1009.78 1010.25 1009.65 1008.64 1007.50 1006.88 1005.66 1004.59 1004.15 1004.48 1004.22 1004.39 1005.08 1005.24 1004.79 1004.60 1004.31 1003.29 1004.18 1004.77 1004.92 1005.23 1005.53 1005.87 1005.72 1005.32
1017.65 1017.74 1017.94 1017.68 1016.60 1016.57 1017.11 1017.33 1017.39 1016.99 1016.92 1016.71 1016.25 1015.83 1015.23 1014.47 1013.66 1012.16 1011.45 1010.84 1011.02 1010.87 1010.95 1010.41 1008.16 1006.31 1004.83 1004.98 1004.61 1004.33 1004.68 1005.71 1006.14 1006.09 1004.85 1004.51 1003.82 1004.74 1005.23 1005.68 1006.07 1006.55 1007.01 1007.12 1006.84
1018.01 1017.63 1017.59 1017.19 1017.30 1017.25 1017.48 1017.37 1017.11 1017.38 1017.57 1017.42 1017.02 1016.51 1016.04 1014.78 1013.92 1012.88 1011.90 1011.30 1011.32 1011.19 1011.59 1011.74 1009.12 1006.86 1005.14 1005.79 1004.36 1004.32 1004.38 1004.78 1005.15 1005.14 1004.20 1003.85 1003.80 1004.31 1004.72 1005.38 1006.23 1006.93 1007.79 1008.18 1008.15
1018.26 1018.03 1017.86 1017.44 1017.42 1017.39 1017.61 1017.57 1017.44 1017.59 1017.57 1017.21 1017.46 1017.17 1017.00 1015.69 1014.06 1012.97 1012.34 1011.71 1011.17 1011.16 1011.62 1011.52 1009.35 1007.54 1006.84 1006.30 1005.90 1004.64 1004.24 1004.13 1004.18 1004.15 1003.87 1002.96 1002.75 1002.74 1003.28 1004.24 1005.80 1006.71 1008.04 1008.72 1009.34
1018.43 1017.95 1018.01 1017.60 1017.80 1017.62 1017.79 1017.62 1017.71 1017.75 1017.63 1016.97 1017.18 1016.56 1016.34 1015.93 1015.47 1014.18 1013.48 1012.68 1011.72 1011.48 1011.71 1011.70 1009.36 1007.68 1006.98 1006.66 1005.68 1004.78 1004.15 1003.71 1003.53 1003.33 1003.16 1002.92 1002.60 1002.71 1003.51 1004.45 1006.07 1006.98 1008.25 1009.52 1010.26
1019.19 1019.16 1017.84 1018.02 1017.60 1017.54 1017.56 1017.90 1018.01 1018.01 1017.41 1017.10 1016.84 1016.43 1015.60 1015.36 1015.19 1014.30 1013.76 1013.22 1012.73 1012.41 1012.15 1011.58 1009.76 1007.49 1006.50 1005.95 1005.43 1004.35 1003.42 1003.31 1003.24 1003.10 1003.18 1003.00 1003.32 1003.61 1004.35 1005.65 1006.47 1007.83 1009.04 1010.05 1011.07
Wind_Speed
8 9 11 10 11 13 14 15 16 17 17 17 17 18 18 19 20 18 13 2 4 6 5 9 9 10 13 14 10 11 12 17 20 14 15 9 14 14 9 13 13 9 7 6 8
7 8 10 11 12 13 14 16 18 19 18 17 17 16 17 18 21 17 8 7 8 7 10 15 13 12 11 13 9 15 16 22 18 12 14 13 15 15 9 12 12 13 9 3 6
7 8 9 11 12 14 15 17 18 19 19 18 16 16 14 17 9 2 6 8 9 9 6 9 8 13 14 9 14 12 22 16 10 14 17 16 17 17 15 19 13 18 13 11 9
7 8 9 11 12 13 15 16 19 19 19 17 15 14 14 7 7 4 4 5 6 11 8 10 10 14 13 15 16 15 14 17 17 15 17 17 18 21 20 18 17 19 18 16 16
8 9 10 12 14 15 16 17 19 21 19 18 13 11 10 7 10 4 1 1 6 9 10 11 12 11 13 9 15 17 19 17 17 19 22 22 24 25 23 18 21 20 18 18 18
7 9 11 13 15 17 19 19 19 21 19 18 11 6 8 9 4 2 2 3 8 9 9 9 6 9 8 10 13 3 9 14 13 16 19 20 22 22 17 19 20 20 18 19 19
8 9 11 15 17 19 19 22 21 21 19 15 6 10 10 15 2 3 5 7 6 12 12 11 8 9 4 8 10 10 14 15 17 18 18 16 22 24 22 21 21 20 17 20 19
7 9 12 16 18 20 22 21 21 19 9 1 13 9 9 2 7 10 9 11 11 9 11 7 8 12 10 9 10 11 12 16 6 5 9 10 15 13 13 14 16 16 16 17 18
7 10 13 16 18 20 22 20 14 4 6 13 9 6 7 2 5 1 7 5 4 9 7 4 6 11 7 11 11 10 11 11 11 11 13 12 12 8 4 8 12 14 14 14 14
8 11 14 16 18 20 20 13 3 7 7 4 1 5 5 3 6 5 2 6 6 8 10 9 8 9 10 10 10 7 10 11 10 4 13 19 19 15 15 14 15 14 13 13 14
8 11 14 16 18 17 10 3 3 6 4 8 8 11 15 10 10 5 0 6 8 11 11 14 12 15 16 16 17 14 13 17 16 16 19 21 22 20 18 18 17 17 17 16 17
8 10 13 15 14 13 7 6 4 5 9 5 9 8 12 8 6 8 7 9 10 13 8 8 15 14 12 13 16 17 15 16 16 12 13 19 22 18 17 19 22 20 18 18 16
8 10 13 17 3 2 11 7 3 4 6 3 3 4 3 5 4 3 8 11 10 13 12 14 5 3 12 13 14 14 14 12 14 14 19 21 24 17 17 25 23 20 21 19 19
8 10 12 17 4 3 3 5 5 6 5 4 3 4 3 4 4 2 5 7 8 10 9 11 10 11 10 12 10 10 3 6 9 9 9 6 8 12 10 12 18 20 19 18 19
8 9 11 11 3 0 5 8 2 5 5 4 5 4 1 6 7 5 5 8 8 8 6 2 5 6 14 17 10 9 3 7 11 13 14 13 10 2 7 7 13 16 19 19 18
8 9 11 2 3 3 8 8 6 6 2 3 2 6 11 1 1 5 6 5 4 7 11 13 3 6 9 5 9 3 9 12 13 9 9 12 12 4 4 8 5 8 4 5 7
8 9 6 4 5 10 7 4 6 6 2 5 4 8 12 6 4 4 7 8 8 6 8 4 13 11 10 10 8 10 8 5 8 6 6 1 7 12 11 11 13 9 11 9 8
7 6 1 4 7 7 4 6 6 5 3 5 5 13 7 6 2 6 6 11 10 9 7 7 6 9 9 13 3 10 11 7 7 4 6 2 8 4 5 4 5 7 10 11 9
3 2 1 7 7 5 5 4 6 4 4 9 12 9 6 2 6 7 8 8 4 10 8 4 5 5 8 4 9 7 8 4 7 13 8 9 9 7 4 6 9 11 12 14 17
1 2 4 10 9 4 2 4 1 3 6 4 5 3 7 7 9 8 6 5 5 3 8 2 8 5 3 6 6 8 3 3 5 5 6 4 7 2 11 13 12 12 13 14 15
1 2 3 10 6 1 3 4 1 1 5 4 4 8 9 11 9 10 8 6 8 7 7 7 8 6 7 10 8 7 8 4 2 7 5 6 3 7 7 10 11 12 13 13 14
1 1 4 7 2 2 4 3 3 3 1 4 6 8 11 12 16 15 16 9 9 9 8 3 6 11 15 7 8 10 8 9 5 5 2 4 2 7 9 10 10 11 11 11 12
2 2 1 5 3 4 5 3 1 2 5 3 4 5 9 12 9 11 16 15 5 4 6 7 5 8 8 7 10 11 7 5 3 2 4 5 3 8 5 10 8 9 10 11 12
2 3 3 3 4 5 3 3 3 3 2 3 7 7 9 10 13 12 14 7 5 12 4 8 7 11 9 3 3 9 11 10 6 4 4 6 12 5 8 5 3 8 9 10 12
2 2 2 5 5 4 2 1 1 3 3 1 3 1 6 7 15 12 18 19 16 4 2 3 8 12 5 2 13 4 7 8 11 10 7 9 12 13 12 4 6 9 8 11 13
3 2 2 6 5 3 3 2 2 1 3 2 4 10 12 9 13 15 11 12 11 5 3 1 5 10 7 8 17 10 10 8 8 5 9 12 12 4 8 6 11 12 10 8 11
2 2 3 4 5 2 3 2 2 7 4 7 9 14 11 7 10 17 17 16 17 14 4 3 6 10 6 8 8 11 11 5 4 4 5 8 13 9 9 4 13 12 12 12 10
Wind_Direction
357 352 346 347 342 342 338 335 334 330 327 326 324 323 321 319 309 294 258 287 198 317 229 156 181 176 192 216 224 235 244 248 247 227 246 238 246 245 272 256 226 230 265 339 333
353 353 348 340 336 336 336 333 329 325 325 326 323 321 320 320 306 282 256 251 239 273 204 189 188 181 196 209 207 221 234 248 262 253 254 251 248 263 222 222 237 245 248 234 309
347 343 337 333 332 335 335 329 323 320 322 320 319 316 318 313 296 77 41 220 224 225 236 226 226 210 224 221 213 225 249 266 244 259 255 256 260 257 245 254 246 263 274 268 273
336 334 331 328 328 329 326 322 316 317 316 312 313 312 314 299 304 102 41 350 210 205 200 179 200 208 228 220 223 252 243 262 262 253 254 251 258 263 261 259 268 267 275 276 267
323 324 327 323 322 323 320 317 313 314 311 304 304 307 293 247 259 106 310 45 167 189 201 195 198 215 230 232 242 241 258 262 260 255 260 264 259 262 258 258 256 261 262 264 264
330 322 323 320 322 320 318 314 312 309 305 296 289 260 249 259 56 201 251 271 232 210 208 214 230 234 272 240 235 304 261 263 261 258 252 255 257 250 255 253 252 254 254 257 257
339 331 328 324 324 319 317 311 311 305 300 291 224 208 245 258 329 243 274 259 260 235 234 220 236 232 298 246 256 266 271 265 255 252 248 261 258 247 251 256 256 257 249 249 251
356 351 334 328 321 320 314 312 309 307 301 257 161 192 254 208 296 271 247 245 231 230 254 250 212 251 242 279 258 265 262 267 246 241 234 235 267 253 238 249 254 250 248 246 249
355 342 337 330 326 319 311 314 318 334 126 129 166 244 277 131 240 238 204 251 198 199 219 275 195 230 223 245 262 230 270 258 277 251 274 235 278 280 271 272 268 257 255 251 249
349 342 336 332 326 317 318 320 171 161 184 232 72 234 234 20 338 319 227 255 230 166 196 210 210 222 213 226 242 252 239 261 265 258 297 281 273 265 267 261 266 272 268 258 254
347 338 337 333 331 329 325 209 240 193 222 278 329 285 291 315 300 246 279 221 205 200 203 197 220 224 229 228 259 277 272 276 276 277 281 275 268 264 261 262 252 253 256 254 253
347 338 329 335 337 340 7 64 51 327 305 286 267 262 271 286 278 252 249 224 204 215 202 184 232 253 243 240 236 250 262 269 281 277 274 271 274 275 260 252 251 249 250 252 249
334 335 339 337 336 22 62 64 342 216 268 287 225 263 348 179 254 272 218 219 228 226 220 247 283 327 237 229 233 239 257 277 287 298 270 269 275 259 247 241 248 245 246 252 252
341 342 348 335 220 20 104 9 337 208 273 97 141 120 175 254 235 244 226 230 213 258 236 262 281 247 238 236 225 247 229 267 279 289 286 353 291 297 281 257 227 235 236 240 235
347 347 352 359 349 11 355 331 328 207 292 85 92 102 254 259 322 138 184 187 233 214 208 223 248 223 232 243 221 261 276 278 279 271 292 269 260 217 241 254 237 232 231 234 231
338 341 336 218 271 353 322 310 204 238 201 126 73 352 349 9 266 136 187 235 289 239 229 263 248 250 251 247 211 280 272 266 254 254 257 262 239 261 307 17 0 357 326 289 262
334 336 319 313 336 328 304 218 233 246 82 51 352 343 324 316 304 258 214 206 229 228 208 221 237 229 233 235 219 231 264 262 215 191 253 149 255 260 308 352 319 319 318 310 303
343 320 26 36 325 324 275 225 246 60 12 18 324 306 283 341 243 321 251 251 221 243 275 276 205 191 185 219 254 212 223 270 285 256 305 214 238 97 57 332 343 328 333 330 327
305 182 10 0 332 312 258 229 10 12 355 337 312 287 264 298 325 307 250 278 300 218 240 231 231 151 194 185 216 153 215 297 281 251 265 246 248 178 76 357 355 358 358 350 342
252 159 48 337 330 289 232 75 85 24 333 325 287 348 298 340 315 342 269 40 340 336 285 278 263 216 144 185 200 261 85 226 219 248 249 244 269 98 1 346 353 356 1 356 349
194 194 36 332 282 62 87 74 13 13 341 305 303 290 291 301 304 305 284 78 3 338 301 244 238 165 176 212 214 185 215 192 267 278 299 303 75 353 9 2 353 1 2 4 357
195 119 8 312 86 54 88 46 353 343 335 277 284 287 280 291 277 268 261 294 356 345 324 238 271 247 242 244 264 239 243 204 252 169 257 317 352 70 46 40 18 9 1 3 8
79 85 74 283 98 106 111 141 252 345 1 343 289 292 310 294 292 260 266 272 324 22 351 346 233 242 227 214 218 224 201 111 68 19 279 311 40 100 51 38 36 30 24 13 18
153 128 115 73 74 110 117 89 103 87 94 301 302 327 328 296 265 256 267 263 269 302 207 313 254 253 276 343 282 190 186 190 187 209 281 267 292 217 223 203 62 52 39 34 29
13 91 9 149 116 90 132 76 27 343 204 299 148 75 3 299 307 262 258 264 280 203 267 146 257 224 209 358 294 253 202 200 213 237 257 302 280 316 322 274 131 94 73 52 38
120 175 182 123 133 136 83 87 322 353 287 316 245 307 313 276 293 302 325 306 280 348 287 226 267 195 199 192 246 246 237 242 245 261 265 282 287 335 340 125 155 123 104 73 67
58 344 271 144 146 171 102 86 282 321 271 247 314 310 303 320 280 289 284 268 259 279 280 256 276 183 182 182 249 250 229 206 250 274 318 323 331 335 338 25 171 130 114 102 75